Theta_e
308 308 308 309 309 309 310 310 311 311 310 311 314 315 316 317 317 313 307 314 317 324 321 314 311 321 322 306 309 315 306 304 308 307 306 315 313 317 320 316 318 321 319 326 336
307 307 308 308 308 308 309 310 310 311 311 310 311 314 315 316 311 307 317 323 324 326 313 309 305 316 314 309 306 306 304 306 314 315 311 313 314 314 313 313 314 318 324 330 335
307 307 307 308 308 308 308 309 309 310 310 310 310 312 314 313 304 304 320 321 323 325 317 308 311 315 311 306 306 306 303 310 311 315 316 313 314 316 312 310 315 315 321 330 330
307 307 306 307 308 308 308 309 308 309 309 310 309 310 312 308 290 310 318 319 320 321 316 306 306 308 309 306 310 297 305 308 308 311 315 312 315 313 313 314 319 321 324 330 328
306 307 307 306 307 307 308 309 309 308 309 309 310 309 308 299 300 312 318 316 315 315 311 305 302 302 304 307 306 306 306 304 309 308 312 316 312 313 313 318 320 321 326 328 329
307 307 306 306 307 307 307 308 308 308 308 309 309 309 301 291 308 311 313 311 312 311 309 307 301 303 302 307 303 305 305 305 305 307 309 310 313 312 315 319 318 320 325 327 328
309 306 306 306 306 307 307 307 307 308 308 308 309 306 298 295 308 310 309 308 310 310 307 308 306 300 301 302 308 306 299 302 305 304 305 310 306 309 316 318 316 319 322 325 328
308 307 306 306 306 306 307 307 307 307 308 308 308 303 293 304 308 306 308 307 311 312 310 311 308 300 299 302 304 301 302 297 305 308 305 306 299 308 317 316 315 317 320 323 326
308 307 306 306 305 306 306 307 307 307 308 308 303 299 291 304 300 304 305 302 306 310 310 312 306 298 299 295 293 297 294 297 301 308 303 303 300 307 313 314 315 317 318 321 324
307 307 307 305 305 305 305 306 306 305 305 304 301 293 296 292 301 303 307 305 301 304 305 304 302 294 294 292 287 292 293 299 299 303 305 299 300 305 307 307 311 316 318 319 321
307 307 307 305 305 304 304 301 295 294 296 291 291 292 293 300 303 301 305 304 301 299 295 300 294 288 291 294 295 295 294 293 300 301 301 298 299 302 306 305 305 308 315 317 320
307 306 306 305 304 304 302 294 294 296 286 294 294 293 296 298 292 296 303 296 296 290 296 294 290 295 295 295 293 294 291 291 296 296 296 298 298 301 304 305 306 306 308 313 318
306 307 306 304 303 301 297 295 302 299 287 289 293 292 293 296 291 292 297 297 293 291 292 291 293 297 293 292 291 290 289 291 291 293 294 294 295 299 302 303 305 307 308 309 310
306 306 305 302 297 297 295 300 301 299 280 283 286 291 294 295 289 297 300 296 292 289 292 292 296 294 292 289 291 287 293 293 290 288 284 292 287 296 300 299 300 302 304 306 309
306 305 304 301 296 294 296 301 301 296 270 284 287 298 295 290 291 291 298 295 289 289 290 288 292 292 290 289 292 289 294 292 291 288 289 288 285 291 298 296 299 300 301 304 306
305 305 303 300 300 299 302 301 297 279 269 279 285 285 286 289 290 292 293 297 295 289 289 288 297 295 293 294 293 294 292 291 291 289 279 286 287 290 294 294 297 300 300 301 302
305 305 302 301 294 301 301 294 278 273 281 279 280 284 283 283 285 287 286 287 285 281 282 288 287 295 296 291 293 292 289 281 279 280 278 288 285 288 296 295 296 296 298 299 300
305 303 300 301 303 301 297 284 273 276 278 283 283 283 279 282 284 285 284 282 288 287 285 282 279 288 295 291 288 289 289 282 276 277 280 287 282 287 295 298 297 296 297 298 299
303 299 299 300 302 300 289 278 276 277 281 280 282 279 279 282 282 283 283 283 284 285 281 283 283 294 295 294 293 288 285 290 283 281 281 283 287 291 293 293 294 294 296 297 300
298 295 295 300 300 296 283 278 279 283 283 283 277 279 276 278 279 280 281 282 282 285 287 286 281 289 293 295 294 291 293 283 284 277 276 281 283 284 289 291 293 294 296 298 300
296 290 296 302 299 287 280 278 279 285 285 281 279 279 280 278 279 279 280 282 284 285 287 285 285 284 289 287 287 288 287 287 286 284 279 277 281 291 291 293 293 295 296 297 299
294 284 298 301 285 283 281 279 282 284 286 283 283 282 280 281 279 279 279 282 287 286 283 286 283 282 284 290 293 292 288 287 282 280 283 283 282 294 293 295 295 295 296 298 299
287 287 299 296 282 282 281 280 282 282 283 282 281 283 283 280 277 280 281 286 287 286 283 285 282 278 280 284 289 287 289 290 289 288 283 280 282 292 292 294 294 295 297 298 298
291 283 286 289 284 280 279 279 280 285 283 284 283 284 281 279 282 279 281 285 288 287 289 287 282 279 276 278 284 284 287 289 288 283 283 284 285 288 290 292 295 296 297 297 298
291 283 281 281 281 279 280 279 279 279 284 285 282 282 279 276 279 279 281 283 286 288 287 285 279 280 281 281 282 283 284 284 286 287 283 286 286 289 292 292 293 295 296 296 296
288 284 283 281 281 279 279 279 279 281 282 281 280 281 282 278 279 277 280 281 281 285 285 286 278 280 277 281 281 279 282 284 284 284 285 286 286 293 293 292 292 292 293 293 293
292 290 289 281 281 280 281 280 279 282 283 284 283 281 280 282 286 286 285 285 284 282 282 282 280 278 275 279 279 276 279 282 284 286 286 283 288 291 289 289 290 292 293 291 291
Wind_Speed
11 11 12 13 13 13 16 16 16 15 15 17 19 18 18 19 20 14 14 9 5 5 9 12 6 5 9 4 3 5 7 12 15 16 12 8 12 6 1 5 8 8 3 7 19
10 11 12 13 13 14 15 16 15 15 15 16 17 18 18 19 17 16 13 15 16 9 9 9 8 4 3 4 2 5 11 16 13 13 11 9 14 11 7 11 10 9 5 8 17
10 10 11 12 13 14 15 16 17 15 16 15 17 17 18 17 13 2 11 10 10 13 10 2 2 2 3 4 1 6 13 13 8 8 9 12 13 11 12 13 11 14 13 16 15
10 9 10 11 13 15 16 17 16 17 16 16 14 16 18 9 8 5 13 12 12 5 10 7 5 5 5 7 5 7 14 14 10 5 8 10 10 11 13 4 6 11 16 17 18
9 10 11 12 13 15 15 15 15 16 16 15 15 14 11 9 14 8 10 13 8 2 10 12 11 8 7 5 4 11 16 18 12 10 9 8 11 14 15 10 3 6 16 17 17
9 8 10 12 14 15 16 16 15 16 17 16 15 13 11 19 11 13 8 12 9 7 7 11 6 11 6 8 13 13 15 16 21 13 8 8 13 2 13 13 6 10 14 15 18
12 7 7 10 13 15 16 17 17 16 16 17 15 11 14 18 12 13 14 14 12 11 10 8 12 9 7 4 8 12 5 9 15 13 13 8 16 13 15 7 14 13 13 14 16
12 8 8 8 11 15 17 17 18 19 17 17 15 12 13 10 14 17 13 13 13 10 12 11 7 10 10 2 6 6 3 12 18 20 10 8 18 19 15 10 16 16 14 13 15
11 9 8 8 11 14 17 20 20 19 17 13 12 9 16 3 14 17 17 17 14 9 11 9 5 10 13 11 10 11 11 20 15 20 13 13 15 20 13 12 16 15 15 13 13
12 10 9 8 10 14 18 20 20 12 8 7 7 7 13 10 4 12 14 14 14 12 11 13 9 11 14 16 23 16 20 19 25 14 21 20 17 19 9 13 15 14 14 14 14
11 11 8 7 9 12 12 9 5 5 5 9 7 13 9 6 12 7 13 11 12 15 19 17 13 22 25 23 20 17 15 19 15 8 18 23 22 20 18 8 13 14 14 14 15
12 9 7 6 8 10 7 6 5 6 12 13 17 19 18 9 10 15 8 13 19 20 18 16 23 22 20 22 23 24 17 18 7 5 10 15 21 20 18 17 13 12 14 13 12
12 10 7 5 6 4 5 3 6 5 5 10 8 11 9 11 15 17 14 15 20 22 22 25 13 21 19 20 24 23 20 14 11 8 10 10 20 20 20 18 18 15 13 12 13
11 8 5 1 4 3 1 7 4 2 4 2 3 2 4 7 11 21 13 12 15 14 24 20 27 19 20 22 20 24 19 11 6 16 9 9 9 23 22 20 15 14 15 16 16
9 3 6 2 3 3 5 6 1 2 6 7 5 8 8 8 12 16 18 14 17 10 6 17 21 24 23 21 21 16 16 13 12 8 3 9 8 15 16 12 13 12 13 15 15
3 9 9 3 1 4 6 1 3 5 3 4 2 8 9 8 12 8 9 13 9 11 8 9 11 23 25 19 17 7 14 8 9 8 7 20 17 10 14 11 12 9 5 5 6
9 11 3 0 2 3 3 2 4 4 2 7 4 7 9 9 7 13 13 13 11 5 11 8 11 16 17 20 19 19 20 7 7 8 11 13 16 17 9 1 4 3 3 4 1
12 10 4 4 4 4 2 3 4 3 4 6 8 12 6 11 5 10 8 11 14 13 6 11 7 18 19 22 17 24 22 8 11 11 13 5 11 15 10 11 4 2 3 3 7
14 2 2 4 4 3 3 4 4 2 6 9 14 7 7 6 5 6 10 7 3 8 10 4 5 20 23 17 18 25 22 16 7 3 6 10 10 3 5 4 4 4 6 8 8
5 2 3 4 4 4 2 4 2 4 8 6 6 4 8 10 9 5 4 3 7 1 7 3 3 3 19 17 15 19 20 11 6 8 7 10 13 6 10 12 8 10 12 12 11
3 2 3 3 3 1 2 3 4 6 5 5 6 7 6 6 8 7 5 3 2 6 10 3 5 2 5 10 15 10 16 13 14 9 8 7 6 3 13 13 16 15 12 9 10
2 1 3 4 1 1 1 2 3 6 2 4 5 9 9 10 6 7 6 6 6 5 5 5 5 8 2 6 10 18 16 20 9 10 7 2 5 7 14 14 15 12 8 7 7
2 0 2 4 1 1 1 3 4 4 4 3 4 4 7 7 5 6 7 6 8 4 4 2 2 4 4 4 4 10 14 19 17 8 10 6 7 10 9 11 8 7 7 7 5
2 0 2 2 1 2 3 2 4 3 4 5 4 4 7 5 3 4 8 7 7 7 7 3 3 3 4 6 5 5 5 7 16 7 8 11 11 13 10 7 4 6 7 6 7
2 2 1 1 1 1 3 3 4 3 2 4 4 4 4 4 7 7 9 8 5 9 4 3 2 2 5 4 5 7 4 3 9 10 9 11 11 13 5 6 4 3 4 4 6
2 3 2 2 3 2 1 1 4 4 3 4 5 9 4 4 4 7 10 8 6 9 7 5 3 2 3 3 2 3 3 2 1 1 6 4 7 6 8 1 3 4 5 7 9
2 1 3 1 2 2 1 2 3 3 3 5 7 10 8 6 8 6 6 9 6 5 7 6 3 3 4 6 2 4 9 12 9 8 6 8 7 4 2 1 3 7 9 10 11
Wind_Direction
15 9 6 359 354 350 341 339 338 340 339 332 332 338 336 335 323 299 277 280 288 351 329 308 300 287 295 292 294 285 248 232 238 237 252 143 198 198 192 174 198 184 320 7 140
9 2 0 356 351 343 341 333 335 333 333 332 325 332 338 332 313 293 266 263 267 277 286 295 308 2 281 262 279 243 232 235 247 258 255 186 214 168 186 206 194 193 127 136 144
359 360 352 346 343 339 333 330 326 329 331 329 324 330 339 320 305 4 16 356 313 244 240 225 97 195 213 323 328 254 247 244 282 299 305 281 221 171 212 204 211 200 169 154 157
337 341 341 338 337 336 330 323 322 322 328 328 326 321 331 303 268 70 356 340 338 205 216 185 174 174 216 205 239 250 259 274 282 329 278 261 253 216 219 198 259 191 158 163 179
322 327 331 331 333 333 330 325 322 319 320 322 324 321 319 253 242 298 10 352 314 271 225 210 208 207 198 200 184 262 262 292 281 274 273 291 256 235 215 201 40 194 149 177 182
303 317 323 325 331 332 329 325 323 318 315 318 317 322 281 268 284 288 294 333 321 286 270 236 227 229 250 196 200 182 247 281 294 279 250 257 253 272 233 223 190 182 183 185 191
304 288 311 319 326 330 329 321 317 314 308 308 308 296 277 253 283 290 301 296 290 285 273 253 246 246 211 194 212 202 222 245 279 261 253 246 252 229 249 213 203 194 197 198 200
327 281 302 311 320 326 324 317 311 308 301 299 297 292 272 272 248 256 263 272 273 255 262 279 260 248 246 123 137 178 232 233 225 265 249 229 252 225 228 195 219 207 207 202 204
329 289 290 303 316 322 320 313 305 295 291 285 269 253 273 294 240 251 249 254 264 271 238 257 224 225 201 209 190 190 211 220 228 234 257 221 250 252 202 215 235 219 218 205 210
332 308 283 295 312 321 320 309 296 294 254 251 246 270 235 274 343 293 253 234 238 252 222 221 215 213 212 205 213 203 222 218 220 207 242 249 242 260 243 207 234 238 224 224 213
327 326 281 292 313 322 323 310 305 231 228 269 279 244 308 308 273 269 246 226 213 237 222 202 211 214 208 215 226 221 217 228 228 191 211 239 253 240 248 200 244 237 235 224 223
323 314 283 288 312 327 298 328 25 332 297 284 260 264 263 281 280 241 256 231 206 223 228 210 226 224 226 221 225 231 227 216 202 14 229 226 240 257 257 255 232 239 238 240 239
313 302 279 282 323 259 331 37 0 345 274 303 281 268 259 225 244 261 240 242 243 219 221 221 226 222 226 228 215 224 223 211 184 196 256 267 245 232 248 253 258 246 246 253 237
306 299 244 248 248 329 320 348 318 43 274 311 296 319 234 234 251 235 238 250 223 242 228 234 226 206 209 221 214 218 217 223 162 164 218 232 257 222 233 236 228 240 238 241 235
307 231 144 282 349 303 351 332 91 189 273 356 349 332 309 241 316 198 212 225 248 233 169 231 215 210 204 213 210 228 202 187 183 194 234 199 256 246 263 246 234 235 238 241 238
170 153 140 145 221 17 337 315 227 235 279 343 323 333 334 262 254 283 191 227 260 244 264 253 303 201 210 215 211 190 167 179 220 211 250 223 221 234 237 225 245 255 266 257 260
166 152 192 20 14 349 354 239 248 277 26 350 331 313 307 313 280 231 248 214 226 223 239 230 233 221 211 193 190 180 161 162 183 199 233 202 225 235 209 344 302 323 74 13 16
143 129 70 50 326 294 258 254 278 61 322 305 301 307 292 330 279 232 220 245 250 224 294 210 199 218 196 193 182 192 184 170 193 192 232 202 219 231 236 261 171 354 333 355 20
129 94 126 23 348 282 285 266 23 350 316 319 313 311 308 349 290 275 228 235 318 346 217 262 246 190 183 188 193 198 207 217 254 42 223 171 221 243 185 199 168 81 64 50 38
122 143 64 360 333 281 265 63 294 290 320 297 299 315 315 337 332 316 168 25 318 293 284 302 319 261 183 198 197 200 197 190 226 181 210 183 210 198 181 156 136 102 91 69 54
107 109 66 334 255 271 348 27 288 263 307 307 321 304 306 327 335 340 29 129 335 333 281 82 270 134 213 198 181 189 199 206 214 235 215 192 207 2 127 135 121 107 89 69 54
99 97 29 307 288 37 2 241 293 296 165 292 282 299 316 333 317 357 20 359 354 6 311 54 297 223 215 310 214 200 195 202 204 200 243 285 95 106 97 112 112 105 93 74 72
82 112 57 306 306 68 110 280 279 304 322 323 290 339 304 316 319 21 345 1 1 34 358 15 35 290 112 87 346 216 209 204 229 249 212 172 129 133 112 125 101 57 49 71 61
127 190 4 38 71 22 339 358 286 242 279 306 278 300 317 308 311 308 5 357 2 4 11 316 65 340 15 9 333 132 197 244 208 211 204 213 135 169 148 133 60 26 17 17 7
358 85 6 73 128 35 315 292 307 307 228 305 275 351 344 308 333 4 10 354 51 8 30 9 120 108 88 83 43 2 123 11 224 223 234 210 231 166 109 32 11 342 16 18 28
148 157 197 149 171 239 215 213 306 318 299 317 309 331 333 314 335 323 349 21 42 337 357 357 76 339 55 27 152 149 243 163 170 241 264 271 280 277 75 327 350 23 33 45 47
112 111 267 118 203 259 215 280 280 321 236 279 307 317 315 348 334 327 314 301 302 327 340 358 357 334 124 350 295 228 209 198 180 195 236 231 268 141 247 346 17 20 37 33 25